| time (UTC) | temp F | wind direction | speed MPH | gust MPH | rain 1hr in | rain 24hr in | rain mn in | humidity % | barometer mb |
| 20260505082137 | 56 | 199 | 5.0 | 10.0 | 0.00 | 0.00 | 0.00 | 51 | 1010.1 |
| 20260505081632 | 56 | 132 | 3.0 | 13.0 | 0.00 | 0.00 | 0.00 | 51 | 1009.8 |
| 20260505081131 | 56 | 131 | 7.0 | 10.0 | 0.00 | 0.00 | 0.00 | 52 | 1010.0 |
| 20260505080627 | 56 | 128 | 8.0 | 14.0 | 0.00 | 0.00 | 0.00 | 51 | 1009.8 |
| 20260505080123 | 56 | 133 | 10.0 | 17.0 | 0.00 | 0.00 | 0.00 | 51 | 1010.1 |
| 20260505075619 | 56 | 156 | 8.0 | 11.0 | 0.00 | 0.00 | 0.00 | 52 | 1010.1 |
| 20260505075116 | 57 | 161 | 12.0 | 14.0 | 0.00 | 0.00 | 0.00 | 52 | 1009.8 |
| 20260505074613 | 56 | 166 | 6.0 | 21.0 | 0.00 | 0.00 | 0.00 | 51 | 1010.1 |
| 20260505074110 | 56 | 143 | 12.0 | 17.0 | 0.00 | 0.00 | 0.00 | 54 | 1010.0 |
| 20260505073608 | 56 | 144 | 13.0 | 21.0 | 0.00 | 0.00 | 0.00 | 55 | 1009.8 |
| 20260505073106 | 56 | 136 | 18.0 | 21.0 | 0.00 | 0.00 | 0.00 | 54 | 1009.7 |
| 20260505072601 | 55 | 121 | 23.0 | 24.0 | 0.00 | 0.00 | 0.00 | 57 | 1010.2 |
| 20260505072058 | 55 | 136 | 21.0 | 22.0 | 0.00 | 0.00 | 0.00 | 60 | 1009.8 |
| 20260505071553 | 54 | 167 | 12.0 | 24.0 | 0.00 | 0.00 | 0.00 | 63 | 1009.8 |
| 20260505071052 | 54 | 131 | 11.0 | 20.0 | 0.00 | 0.00 | 0.00 | 66 | 1009.7 |
| 20260505070548 | 54 | 145 | 11.0 | 18.0 | 0.00 | 0.00 | 0.00 | 67 | 1010.0 |
| 20260505070044 | 54 | 151 | 20.0 | 20.0 | 0.00 | 0.00 | 0.00 | 66 | 1010.1 |
| 20260505065540 | 54 | 145 | 11.0 | 26.0 | 0.00 | 0.00 | 0.00 | 66 | 1010.3 |
| 20260505065037 | 55 | 141 | 16.0 | 26.0 | 0.00 | 0.00 | 0.00 | 65 | 1010.3 |
| 20260505064534 | 55 | 150 | 17.0 | 22.0 | 0.00 | 0.00 | 0.00 | 66 | 1010.4 |
| 20260505064033 | 55 | 142 | 15.0 | 23.0 | 0.00 | 0.00 | 0.00 | 66 | 1010.4 |
| 20260505063529 | 55 | 164 | 12.0 | 23.0 | 0.00 | 0.00 | 0.00 | 66 | 1010.5 |
| 20260505063025 | 55 | 149 | 12.0 | 20.0 | 0.00 | 0.00 | 0.00 | 67 | 1010.4 |
| 20260505062522 | 55 | 152 | 14.0 | 25.0 | 0.00 | 0.00 | 0.00 | 67 | 1010.8 |
| 20260505062020 | 55 | 135 | 9.0 | 17.0 | 0.00 | 0.00 | 0.00 | 67 | 1010.5 |
| 20260505061517 | 55 | 136 | 14.0 | 20.0 | 0.00 | 0.00 | 0.00 | 67 | 1010.8 |
| 20260505061015 | 55 | 131 | 12.0 | 17.0 | 0.00 | 0.00 | 0.00 | 67 | 1010.5 |
| 20260505060512 | 55 | 117 | 14.0 | 25.0 | 0.00 | 0.00 | 0.00 | 67 | 1010.5 |
| 20260505060008 | 55 | 130 | 12.0 | 17.0 | 0.00 | 0.00 | 0.00 | 68 | 1010.7 |
| 20260505055504 | 55 | 156 | 12.0 | 17.0 | 0.00 | 0.00 | 0.00 | 67 | 1010.7 |
| 20260505055001 | 55 | 151 | 15.0 | 21.0 | 0.00 | 0.00 | 0.00 | 67 | 1010.4 |
| 20260505054458 | 55 | 128 | 12.0 | 19.0 | 0.00 | 0.00 | 0.00 | 66 | 1010.5 |
| 20260505053956 | 55 | 124 | 7.0 | 24.0 | 0.00 | 0.00 | 0.00 | 65 | 1010.5 |
| 20260505053453 | 55 | 158 | 7.0 | 21.0 | 0.00 | 0.00 | 0.00 | 64 | 1010.5 |
| 20260505052949 | 55 | 130 | 11.0 | 23.0 | 0.00 | 0.00 | 0.00 | 63 | 1010.8 |
| 20260505052447 | 55 | 134 | 19.0 | 21.0 | 0.00 | 0.00 | 0.00 | 62 | 1010.8 |
| 20260505051944 | 55 | 143 | 16.0 | 21.0 | 0.00 | 0.00 | 0.00 | 63 | 1010.7 |
| 20260505051440 | 56 | 131 | 17.0 | 25.0 | 0.00 | 0.00 | 0.00 | 63 | 1010.4 |
| 20260505050939 | 56 | 153 | 21.0 | 25.0 | 0.00 | 0.00 | 0.00 | 62 | 1010.7 |
| 20260505050437 | 56 | 136 | 13.0 | 25.0 | 0.00 | 0.00 | 0.00 | 61 | 1010.4 |
| 20260505041405 | 58 | 167 | 10.0 | 27.0 | 0.00 | 0.00 | 0.00 | 61 | 1009.7 |
| 20260505040901 | 58 | 143 | 21.0 | 27.0 | 0.00 | 0.00 | 0.00 | 58 | 1009.4 |
| 20260505040359 | 59 | 159 | 12.0 | 25.0 | 0.00 | 0.00 | 0.00 | 55 | 1009.6 |
| 20260505035855 | 59 | 139 | 26.0 | 35.0 | 0.00 | 0.00 | 0.00 | 53 | 1009.2 |
| 20260505035351 | 60 | 153 | 15.0 | 23.0 | 0.00 | 0.00 | 0.00 | 51 | 1009.0 |
| 20260505034849 | 60 | 148 | 11.0 | 19.0 | 0.00 | 0.00 | 0.00 | 48 | 1009.0 |
| 20260505034345 | 61 | 133 | 19.0 | 25.0 | 0.00 | 0.00 | 0.00 | 47 | 1008.9 |
| 20260505033842 | 61 | 185 | 11.0 | 23.0 | 0.00 | 0.00 | 0.00 | 45 | 1008.8 |
| 20260505033339 | 61 | 189 | 12.0 | 20.0 | 0.00 | 0.00 | 0.00 | 47 | 1008.8 |
| 20260505032837 | 62 | 160 | 11.0 | 18.0 | 0.00 | 0.00 | 0.00 | 47 | 1008.7 |
| 20260505032334 | 62 | 160 | 14.0 | 18.0 | 0.00 | 0.00 | 0.00 | 40 | 1008.6 |
| 20260505031831 | 63 | 154 | 14.0 | 15.0 | 0.00 | 0.00 | 0.00 | 38 | 1008.5 |
| 20260505031327 | 63 | 147 | 10.0 | 16.0 | 0.00 | 0.00 | 0.00 | 37 | 1008.2 |
| 20260505030825 | 63 | 150 | 11.0 | 16.0 | 0.00 | 0.00 | 0.00 | 39 | 1008.2 |
| 20260505030321 | 63 | 162 | 9.0 | 14.0 | 0.00 | 0.00 | 0.00 | 39 | 1008.3 |
| 20260505025816 | 63 | 157 | 6.0 | 11.0 | 0.00 | 0.00 | 0.00 | 39 | 1008.3 |
| 20260505025314 | 63 | 161 | 4.0 | 8.0 | 0.00 | 0.00 | 0.00 | 39 | 1008.1 |
| 20260505024812 | 63 | 169 | 7.0 | 8.0 | 0.00 | 0.00 | 0.00 | 39 | 1008.0 |
| 20260505024310 | 63 | 168 | 4.0 | 7.0 | 0.00 | 0.00 | 0.00 | 39 | 1008.1 |
| 20260505023807 | 63 | 180 | 5.0 | 11.0 | 0.00 | 0.00 | 0.00 | 39 | 1008.2 |
| 20260505023303 | 63 | 147 | 4.0 | 9.0 | 0.00 | 0.00 | 0.00 | 38 | 1008.1 |
| 20260505022801 | 64 | 133 | 3.0 | 6.0 | 0.00 | 0.00 | 0.00 | 38 | 1008.1 |
| 20260505022258 | 64 | 150 | 5.0 | 11.0 | 0.00 | 0.00 | 0.00 | 37 | 1007.9 |
| 20260505021755 | 64 | 151 | 5.0 | 12.0 | 0.00 | 0.00 | 0.00 | 37 | 1008.1 |
| 20260505021251 | 64 | 166 | 9.0 | 13.0 | 0.00 | 0.00 | 0.00 | 38 | 1007.9 |
| 20260505020747 | 64 | 164 | 12.0 | 14.0 | 0.00 | 0.00 | 0.00 | 37 | 1008.0 |
| 20260505020242 | 64 | 154 | 4.0 | 8.0 | 0.00 | 0.00 | 0.00 | 37 | 1008.0 |
| 20260505015740 | 64 | 140 | 5.0 | 9.0 | 0.00 | 0.00 | 0.00 | 37 | 1007.9 |
| 20260505015237 | 64 | 160 | 6.0 | 9.0 | 0.00 | 0.00 | 0.00 | 37 | 1008.0 |
| 20260505014734 | 65 | 177 | 5.0 | 8.0 | 0.00 | 0.00 | 0.00 | 37 | 1007.8 |
| 20260505014231 | 65 | 157 | 6.0 | 10.0 | 0.00 | 0.00 | 0.00 | 37 | 1008.0 |
| 20260505013728 | 65 | 195 | 8.0 | 10.0 | 0.00 | 0.00 | 0.00 | 37 | 1008.0 |
| 20260505013225 | 65 | 165 | 10.0 | 13.0 | 0.00 | 0.00 | 0.00 | 36 | 1008.0 |
| 20260505012723 | 66 | 158 | 11.0 | 14.0 | 0.00 | 0.00 | 0.00 | 36 | 1008.2 |
| 20260505012220 | 65 | 182 | 7.0 | 14.0 | 0.00 | 0.00 | 0.00 | 37 | 1008.0 |
| 20260505011716 | 65 | 147 | 5.0 | 20.0 | 0.00 | 0.00 | 0.00 | 36 | 1008.0 |
| 20260505011214 | 65 | 160 | 13.0 | 20.0 | 0.00 | 0.00 | 0.00 | 36 | 1008.1 |
| 20260505010708 | 66 | 150 | 11.0 | 16.0 | 0.00 | 0.00 | 0.00 | 36 | 1008.2 |
| 20260505010205 | 66 | 142 | 9.0 | 20.0 | 0.00 | 0.00 | 0.00 | 35 | 1008.3 |
| 20260505005701 | 68 | 132 | 12.0 | 20.0 | 0.00 | 0.00 | 0.00 | 33 | 1008.1 |
| 20260505005159 | 68 | 175 | 7.0 | 11.0 | 0.00 | 0.00 | 0.00 | 31 | 1008.3 |
| 20260505004656 | 68 | 141 | 3.0 | 4.0 | 0.00 | 0.00 | 0.00 | 30 | 1008.2 |
| 20260505004152 | 69 | 121 | 0.0 | 2.0 | 0.00 | 0.00 | 0.00 | 30 | 1008.0 |
| 20260505003649 | 70 | 19 | 0.0 | 1.0 | 0.00 | 0.00 | 0.00 | 27 | 1008.1 |
| 20260505003147 | 72 | 204 | 0.0 | 3.0 | 0.00 | 0.00 | 0.00 | 27 | 1008.1 |
| 20260505002643 | 73 | 227 | 3.0 | 4.0 | 0.00 | 0.00 | 0.00 | 28 | 1008.1 |
| 20260505002141 | 72 | 267 | 4.0 | 6.0 | 0.00 | 0.00 | 0.00 | 30 | 1008.2 |
| 20260505001638 | 70 | 18 | 2.0 | 2.0 | 0.00 | 0.00 | 0.00 | 30 | 1008.5 |
| 20260505001136 | 69 | 225 | 3.0 | 4.0 | 0.00 | 0.00 | 0.00 | 30 | 1008.5 |
| 20260505000632 | 68 | 276 | 7.0 | 8.0 | 0.00 | 0.00 | 0.00 | 31 | 1008.5 |
| 20260505000131 | 68 | 289 | 11.0 | 11.0 | 0.00 | 0.00 | 0.00 | 31 | 1008.3 |
| 20260504235626 | 69 | 336 | 11.0 | 13.0 | 0.00 | 0.00 | 0.00 | 30 | 1008.6 |
| 20260504235123 | 70 | 7 | 2.0 | 6.0 | 0.00 | 0.00 | 0.00 | 29 | 1008.2 |
| 20260504234620 | 71 | 345 | 4.0 | 5.0 | 0.00 | 0.00 | 0.00 | 28 | 1008.3 |
| 20260504234118 | 73 | 347 | 7.0 | 11.0 | 0.00 | 0.00 | 0.00 | 27 | 1008.6 |
| 20260504233613 | 73 | 0 | 7.0 | 11.0 | 0.00 | 0.00 | 0.00 | 28 | 1008.5 |
| 20260504233109 | 72 | 351 | 11.0 | 14.0 | 0.00 | 0.00 | 0.00 | 27 | 1008.5 |
| 20260504232607 | 72 | 298 | 8.0 | 16.0 | 0.00 | 0.00 | 0.00 | 26 | 1008.5 |
| 20260504232104 | 72 | 359 | 8.0 | 15.0 | 0.00 | 0.00 | 0.00 | 28 | 1008.3 |
| 20260504231601 | 71 | 352 | 9.0 | 10.0 | 0.00 | 0.00 | 0.00 | 28 | 1008.2 |
| 20260504231056 | 71 | 354 | 8.0 | 11.0 | 0.00 | 0.00 | 0.00 | 28 | 1008.5 |
| 20260504230553 | 72 | 301 | 2.0 | 7.0 | 0.00 | 0.00 | 0.00 | 28 | 1008.3 |
| 20260504230052 | 74 | 326 | 5.0 | 13.0 | 0.00 | 0.00 | 0.00 | 25 | 1008.3 |
| 20260504225549 | 73 | 292 | 2.0 | 9.0 | 0.00 | 0.00 | 0.00 | 27 | 1008.2 |
| 20260504225046 | 73 | 328 | 9.0 | 11.0 | 0.00 | 0.00 | 0.00 | 27 | 1008.6 |
| 20260504224543 | 74 | 335 | 8.0 | 13.0 | 0.00 | 0.00 | 0.00 | 28 | 1008.6 |
| 20260504224040 | 73 | 347 | 7.0 | 8.0 | 0.00 | 0.00 | 0.00 | 26 | 1009.0 |
| 20260504223537 | 73 | 358 | 8.0 | 13.0 | 0.00 | 0.00 | 0.00 | 27 | 1008.7 |
| 20260504223032 | 73 | 323 | 8.0 | 9.0 | 0.00 | 0.00 | 0.00 | 28 | 1008.7 |
| 20260504222529 | 72 | 343 | 9.0 | 14.0 | 0.00 | 0.00 | 0.00 | 30 | 1008.6 |
| 20260504222027 | 71 | 349 | 6.0 | 19.0 | 0.00 | 0.00 | 0.00 | 30 | 1008.7 |
| 20260504221524 | 69 | 333 | 2.0 | 16.0 | 0.00 | 0.00 | 0.00 | 33 | 1008.9 |
| 20260504221021 | 69 | 325 | 13.0 | 17.0 | 0.00 | 0.00 | 0.00 | 33 | 1008.9 |
| 20260504220517 | 69 | 12 | 8.0 | 13.0 | 0.00 | 0.00 | 0.00 | 33 | 1009.0 |
| 20260504220014 | 68 | 332 | 6.0 | 11.0 | 0.00 | 0.00 | 0.00 | 35 | 1008.9 |
| 20260504215510 | 67 | 312 | 2.0 | 13.0 | 0.00 | 0.00 | 0.00 | 37 | 1009.0 |
| 20260504215008 | 67 | 356 | 10.0 | 10.0 | 0.00 | 0.00 | 0.00 | 39 | 1009.3 |
| 20260504214504 | 66 | 319 | 4.0 | 8.0 | 0.00 | 0.00 | 0.00 | 37 | 1009.2 |
| 20260504214000 | 66 | 279 | 7.0 | 12.0 | 0.00 | 0.00 | 0.00 | 35 | 1009.4 |
| 20260504213456 | 66 | 320 | 4.0 | 7.0 | 0.00 | 0.00 | 0.00 | 35 | 1009.0 |
| 20260504212954 | 67 | 265 | 5.0 | 11.0 | 0.00 | 0.00 | 0.00 | 33 | 1009.3 |
| 20260504212450 | 67 | 261 | 9.0 | 13.0 | 0.00 | 0.00 | 0.00 | 33 | 1008.9 |
| 20260504211948 | 67 | 256 | 4.0 | 15.0 | 0.00 | 0.00 | 0.00 | 34 | 1008.9 |
| 20260504211444 | 68 | 260 | 15.0 | 17.0 | 0.00 | 0.00 | 0.00 | 33 | 1009.0 |
| 20260504210942 | 68 | 267 | 8.0 | 18.0 | 0.00 | 0.00 | 0.00 | 33 | 1008.9 |
| 20260504210438 | 69 | 245 | 11.0 | 17.0 | 0.00 | 0.00 | 0.00 | 31 | 1009.3 |
| 20260504205935 | 69 | 271 | 5.0 | 9.0 | 0.00 | 0.00 | 0.00 | 32 | 1009.2 |
| 20260504205433 | 69 | 256 | 9.0 | 10.0 | 0.00 | 0.00 | 0.00 | 31 | 1008.9 |
| 20260504204931 | 69 | 269 | 9.0 | 13.0 | 0.00 | 0.00 | 0.00 | 30 | 1008.8 |
| 20260504204429 | 69 | 304 | 5.0 | 10.0 | 0.00 | 0.00 | 0.00 | 30 | 1008.9 |
| 20260504203928 | 70 | 304 | 8.0 | 11.0 | 0.00 | 0.00 | 0.00 | 28 | 1008.9 |
| 20260504203425 | 70 | 328 | 3.0 | 8.0 | 0.00 | 0.00 | 0.00 | 29 | 1008.9 |
| 20260504202921 | 71 | 305 | 3.0 | 4.0 | 0.00 | 0.00 | 0.00 | 28 | 1008.8 |
| 20260504202418 | 71 | 268 | 6.0 | 11.0 | 0.00 | 0.00 | 0.00 | 28 | 1008.9 |
| 20260504201914 | 72 | 288 | 6.0 | 7.0 | 0.00 | 0.00 | 0.00 | 27 | 1009.0 |
| 20260504201412 | 73 | 21 | 5.0 | 11.0 | 0.00 | 0.00 | 0.00 | 27 | 1008.8 |
| 20260504200909 | 75 | 322 | 4.0 | 8.0 | 0.00 | 0.00 | 0.00 | 25 | 1009.2 |
| 20260504200406 | 75 | 323 | 2.0 | 6.0 | 0.00 | 0.00 | 0.00 | 26 | 1009.0 |
| 20260504195903 | 74 | 181 | 4.0 | 10.0 | 0.00 | 0.00 | 0.00 | 26 | 1008.9 |
| 20260504195358 | 76 | 134 | 3.0 | 8.0 | 0.00 | 0.00 | 0.00 | 24 | 1009.3 |
| 20260504194855 | 79 | 195 | 3.0 | 11.0 | 0.00 | 0.00 | 0.00 | 23 | 1009.3 |
| 20260504194350 | 78 | 217 | 7.0 | 12.0 | 0.00 | 0.00 | 0.00 | 27 | 1009.4 |
| 20260504193847 | 77 | 265 | 9.0 | 9.0 | 0.00 | 0.00 | 0.00 | 25 | 1009.3 |
| 20260504193344 | 77 | 71 | 5.0 | 8.0 | 0.00 | 0.00 | 0.00 | 27 | 1009.5 |
| 20260504192843 | 77 | 114 | 4.0 | 9.0 | 0.00 | 0.00 | 0.00 | 25 | 1009.6 |
| 20260504192340 | 76 | 199 | 9.0 | 10.0 | 0.00 | 0.00 | 0.00 | 26 | 1009.6 |
| 20260504191838 | 77 | 167 | 6.0 | 12.0 | 0.00 | 0.00 | 0.00 | 25 | 1009.5 |
| 20260504191336 | 77 | 198 | 6.0 | 6.0 | 0.00 | 0.00 | 0.00 | 25 | 1009.7 |
| 20260504190831 | 76 | 223 | 6.0 | 10.0 | 0.00 | 0.00 | 0.00 | 26 | 1009.7 |
| 20260504190327 | 74 | 97 | 1.0 | 9.0 | 0.00 | 0.00 | 0.00 | 27 | 1009.8 |
| 20260504185824 | 74 | 186 | 4.0 | 8.0 | 0.00 | 0.00 | 0.00 | 28 | 1010.1 |
| 20260504185321 | 75 | 212 | 6.0 | 17.0 | 0.00 | 0.00 | 0.00 | 25 | 1009.7 |
| 20260504184817 | 75 | 227 | 6.0 | 11.0 | 0.00 | 0.00 | 0.00 | 28 | 1010.0 |
| 20260504184313 | 74 | 186 | 9.0 | 11.0 | 0.00 | 0.00 | 0.00 | 28 | 1010.0 |
| 20260504183809 | 73 | 109 | 6.0 | 16.0 | 0.00 | 0.00 | 0.00 | 26 | 1010.1 |
| 20260504183306 | 74 | 13 | 2.0 | 11.0 | 0.00 | 0.00 | 0.00 | 30 | 1010.1 |
| 20260504182804 | 73 | 209 | 8.0 | 11.0 | 0.00 | 0.00 | 0.00 | 29 | 1010.4 |
| 20260504182301 | 72 | 153 | 11.0 | 15.0 | 0.00 | 0.00 | 0.00 | 27 | 1010.2 |
| 20260504181759 | 73 | 120 | 12.0 | 16.0 | 0.00 | 0.00 | 0.00 | 27 | 1010.3 |
| 20260504181256 | 73 | 141 | 8.0 | 12.0 | 0.00 | 0.00 | 0.00 | 28 | 1010.7 |
| 20260504180755 | 73 | 155 | 12.0 | 13.0 | 0.00 | 0.00 | 0.00 | 27 | 1010.4 |
| 20260504180253 | 73 | 107 | 6.0 | 10.0 | 0.00 | 0.00 | 0.00 | 27 | 1010.7 |
| 20260504175750 | 73 | 171 | 4.0 | 11.0 | 0.00 | 0.00 | 0.00 | 28 | 1010.5 |
| 20260504175247 | 72 | 174 | 4.0 | 11.0 | 0.00 | 0.00 | 0.00 | 27 | 1010.7 |
| 20260504174745 | 71 | 184 | 6.0 | 14.0 | 0.00 | 0.00 | 0.00 | 28 | 1010.7 |
| 20260504174243 | 72 | 146 | 3.0 | 10.0 | 0.00 | 0.00 | 0.00 | 29 | 1010.7 |
| 20260504173739 | 71 | 172 | 9.0 | 15.0 | 0.00 | 0.00 | 0.00 | 29 | 1010.9 |
| 20260504173236 | 71 | 190 | 4.0 | 12.0 | 0.00 | 0.00 | 0.00 | 30 | 1011.0 |
| 20260504172733 | 72 | 164 | 12.0 | 14.0 | 0.00 | 0.00 | 0.00 | 31 | 1010.7 |
| 20260504172229 | 71 | 178 | 5.0 | 15.0 | 0.00 | 0.00 | 0.00 | 31 | 1010.9 |
| 20260504171726 | 70 | 190 | 4.0 | 11.0 | 0.00 | 0.00 | 0.00 | 31 | 1011.1 |
| 20260504171223 | 70 | 167 | 3.0 | 14.0 | 0.00 | 0.00 | 0.00 | 30 | 1011.0 |
| 20260504170719 | 69 | 146 | 9.0 | 14.0 | 0.00 | 0.00 | 0.00 | 31 | 1011.0 |
| 20260504170217 | 69 | 161 | 6.0 | 19.0 | 0.00 | 0.00 | 0.00 | 32 | 1011.0 |
| 20260504160135 | 68 | 137 | 6.0 | 10.0 | 0.00 | 0.00 | 0.00 | 34 | 1011.0 |
| 20260504151103 | 61 | 166 | 8.0 | 15.0 | 0.00 | 0.00 | 0.00 | 41 | 1011.4 |
| 20260504150600 | 61 | 160 | 10.0 | 20.0 | 0.00 | 0.00 | 0.00 | 42 | 1011.6 |
| 20260504141026 | 61 | 146 | 9.0 | 16.0 | 0.00 | 0.00 | 0.00 | 40 | 1011.5 |
| 20260504140522 | 61 | 151 | 11.0 | 14.0 | 0.00 | 0.00 | 0.00 | 39 | 1011.1 |
| 20260504130447 | 60 | 167 | 6.0 | 17.0 | 0.00 | 0.00 | 0.00 | 39 | 1011.2 |
| 20260504110334 | 60 | 151 | 10.0 | 17.0 | 0.00 | 0.00 | 0.00 | 38 | 1011.6 |
| 20260504100251 | 60 | 148 | 15.0 | 19.0 | 0.00 | 0.00 | 0.00 | 34 | 1011.4 |